Weather in Akhvenlambi

Russia / Republic of Karelia     63°23′59″N   33°12′01″E
temp.,
°C
wind,
m/s
gust,
m/s
humid.,
%
clouds,
%
prec.,
mm/h
press.,
hPa
HPBL,
m
27 july, tue
tue2700:00+14e3670100 0.0 1020188
03:00+11e2275100 0.0 102145
06:00+13ese2467100 0.0 1021175
09:00+17se22515 0.0 1021483
12:00+21ese22445 0.0 1020971
15:00+24se123810 0.0 10191713
18:00+23ese223916 0.0 10181346
21:00+16se26600 0.0 1017112
28 july, wed
wed2800:00+13sse25663 0.0 101876
03:00+12s22714 0.0 101729
06:00+14ssw13725 0.0 1015109
09:00+20ssw245115 0.0 1013512
12:00+25sw23376 0.0 10111732
15:00+27sw23306 0.0 10092218
18:00+26ssw23316 0.0 10071656
21:00+20s22526 0.0 100517
29 july, thu
thu2900:00+17sw226547 0.0 100413
03:00+15wsw227711 0.0 100338
06:00+17w267083 0.0 1001184
09:00+21sw2355100 0.0 1000509
12:00+25sw4543100 0.1 9981796
15:00+23ssw565195 0.1 9971233
18:00+22ssw3460100 0.2 9951071
21:00+16ene3794100 3.7 995216
30 july, fri
fri3000:00+14ne259892 2.4 995219
03:00+14ene2499100 4.9 995192
06:00+15ssw269878 5.1 995378
09:00+17sw488670 5.6 994739
12:00+20sw597595 1.3 9941183
15:00+19wsw5107818 4.1 9941170
18:00+19wsw486843 0.8 994735
21:00+15sw41171100 0.8 994562
31 july, sat
sat3100:00+14sw41277100 0.0 994554
03:00+12ssw399131 0.0 994294
06:00+13s2889100 0.0 993406
09:00+14s3886100 0.2 992692
12:00+15ssw2593100 2.4 992357
15:00+15w239089 10.1 992306
18:00+16w358435 0.9 993648
21:00+14wnw26935 1.6 995137